Regional Weather Roundup
Issued by NWS Bismarck, ND

Home | Current Version | Previous Version | Text Only | Print | Product List | Glossary On
Versions: 1 2 3 4 5 6 7 8 9 10 11 12 13 14 15 16 17 18 19 20 21 22 23 24 25 26 27 28 29 30 31 32 33 34 35 36 37 38 39 40 41 42 43 44 45 46 47 48 49 50
000
ASUS43 KBIS 271710
RWRBIS

NWR BROADCAST TEXT
NATIONAL WEATHER SERVICE BISMARCK ND
1100 AM CST TUE JAN 27 2015

NOTE: "FAIR" INDICATES FEW OR NO CLOUDS BELOW 12,000 FEET WITH NO
SIGNIFICANT WEATHER AND/OR OBSTRUCTIONS TO VISIBILITY.


CITY           SKY/WX    TMP DP  RH WIND       PRES   REMARKS
WILLISTON      MOSUNNY   37  32  82 S8        29.84S
MINOT          MOSUNNY   38  32  79 SE5       29.82F
MINOT AFB      MOSUNNY   35  35  99 S8        29.82F
BISMARCK       SUNNY     39  32  76 S9        29.90F
DICKINSON      MOSUNNY   50  34  54 W13       29.85R
GARRISON         N/A     35  32  88 S6        29.84F
HETTINGER ARPT MOSUNNY   49  35  58 W6        29.90R
JAMESTOWN      SUNNY     35  32  88 S15       29.96S
BEACH          FAIR      46  34  61 SW13      29.89S
CARRINGTON     FAIR      32  32 100 MISG      29.93F
CROSBY         FAIR      37  37 100 S9        29.80S
HARVEY         FAIR      32  30  93 S14       29.88F
HAZEN          FAIR      39  34  81 W5        29.86F
LINTON         FAIR      39  37  93 S10       29.93R
MANDAN         FAIR      37  32  81 S10       29.89S
OAKES            N/A     32  32 100 SE9       30.02R
RUGBY          FAIR      32  30  93 SE15      29.87S
TIOGA          FAIR      37  37 100 SW8       29.84S
WATFORD CITY   FAIR      37  36  93 SW3       29.83S
$$

CITY           SKY/WX    TMP DP  RH WIND       PRES   REMARKS
GRAND FORKS    FOG       28  27  96 S12       30.04S VSB 1   WCI  18
GRAND FORKS AF CLOUDY    28  27  95 S9        30.03S FOG     WCI  19
DEVILS LAKE    SUNNY     32  30  93 S14       29.92F
FARGO          CLOUDY    30  28  92 S15       30.07F FOG     WCI  19
CANDO          FAIR      32  32 100 S14       29.91F
CAVALIER       PTSUNNY   27  27 100 S12       30.00S FOG     WCI  16
GWINNER        CLOUDY    32  32 100 SE9       30.05R VSB 0
LANGDON        PTSUNNY   32  30  93 S15       29.94R
ROLLA          FAIR      32  32 100 S15       29.88S
WALHALLA         N/A     28  28 100 SE13      29.97F WCI  18
$$

CITY           SKY/WX    TMP DP  RH WIND       PRES   REMARKS
ABERDEEN       SUNNY     38  33  82 S12       30.01F
MOBRIDGE       SUNNY     40  33  76 SE10      29.91R
BUFFALO          N/A     54  31  41 W10       29.87R
RAPID CITY     SUNNY     64  25  22 W8        29.97R
GLASGOW        PTSUNNY   37  31  78 SE3       29.86R
SIDNEY         MOSUNNY   39  34  81 S6        29.88R
WOLF POINT     PTSUNNY   37  33  85 W7        29.86R
GLENDIVE       MOSUNNY   41  34  75 S7        29.90R
MILES CITY     MOSUNNY   37  30  75 SE6       29.92S
BAKER          SUNNY     47  34  60 VRB3      29.92S
$$

CITY           SKY/WX    TMP DP  RH WIND       PRES   REMARKS
BILLINGS       PTSUNNY   49  28  44 SW18      29.93F
GREAT FALLS    CLOUDY    56  29  35 SW17      29.90S
REGINA         CLOUDY    27  25  93 E7        29.78S WCI  19
ESTEVAN        CLOUDY    36  34  93 S8        29.79S
$$



USA.gov is the U.S. government's official web portal to all federal, state and local government web resources and services.